Location: �perlecques
(50.8057°N, 2.1521°E)
Time: 06:51:53
(UTC+00:00)

NOAA 18 - Visible Passes

Search period start: 01 April 2023 00:00
Search period end: 11 April 2023 00:00
Orbit: 839 x 859 km, 98.9° (Epoch: 01 April)

Date Brightness Start Highest point End Pass type
(mag) Time Alt. Az. Time Alt. Az. Time Alt. Az.
01 Apr 7.2 19:25:35 10° ENE 19:28:12 14° NE 19:30:48 10° NNE visible
01 Apr 5.3 21:07:01 54° ESE 21:07:48 60° ENE 21:13:16 10° N visible
01 Apr 6.8 22:48:59 26° W 22:48:59 26° W 22:53:27 10° NW visible
02 Apr 7.3 19:14:35 10° ENE 19:16:14 11° NE 19:17:53 10° NNE visible
02 Apr 5.6 20:54:34 43° E 20:55:39 49° ENE 21:01:00 10° N visible
02 Apr 6.5 22:36:32 32° W 22:36:32 32° W 22:41:28 10° NNW visible
03 Apr 5.8 20:42:06 34° E 20:43:32 40° ENE 20:48:42 10° N visible
03 Apr 6.1 22:24:05 39° W 22:24:13 39° W 22:29:26 10° NNW visible
04 Apr 6.1 20:29:40 27° E 20:31:26 33° ENE 20:36:22 10° N visible
04 Apr 5.8 22:11:38 48° WSW 22:11:56 48° W 22:17:19 10° NNW visible
05 Apr 6.4 20:17:13 22° E 20:19:21 28° ENE 20:24:00 10° N visible
05 Apr 5.5 21:59:10 57° SW 21:59:41 59° WSW 22:05:12 10° NNW visible
06 Apr 6.6 20:04:45 17° E 20:07:17 24° NE 20:11:36 10° N visible
06 Apr 5.2 21:46:43 64° SSW 21:47:27 73° WSW 21:53:02 10° NNW visible
06 Apr 7.5 23:28:41 13° W 23:29:05 13° W 23:31:30 10° WNW visible
07 Apr 6.8 19:52:18 13° E 19:55:16 20° NE 19:59:09 10° N visible
07 Apr 5.1 21:34:16 63° SSE 21:35:14 89° WSW 21:40:50 10° NNW visible
07 Apr 7.3 23:16:14 16° W 23:16:41 16° W 23:20:04 10° NW visible
08 Apr 7.0 19:39:50 10° E 19:43:14 17° NE 19:46:38 10° NNE visible
08 Apr 5.2 21:21:49 55° SE 21:23:02 76° ENE 21:28:37 10° NNW visible
08 Apr 7.0 23:03:47 20° W 23:04:18 20° W 23:08:20 10° NW visible
09 Apr 7.2 19:28:28 10° ENE 19:31:14 14° NE 19:33:59 10° NNE visible
09 Apr 5.3 21:09:21 45° SE 21:10:52 62° ENE 21:16:22 10° N visible
09 Apr 6.8 22:51:20 24° WSW 22:51:56 25° W 22:56:27 10° NW visible
10 Apr 7.3 19:17:21 10° ENE 19:19:15 12° NE 19:21:08 10° NNE visible
10 Apr 5.5 20:56:55 37° ESE 20:58:43 51° ENE 21:04:05 10° N visible
10 Apr 6.5 22:38:52 29° WSW 22:39:37 30° W 22:44:29 10° NNW visible
